THORAD AGENA D DEB, 4614

Orbit data source: Space-Track

THORAD AGENA D DEB, 4614 is space debris in SSO originally from a launch on Wed, 08 Apr 1970 UTC launched from the Air Force Western Test Range (AFWTR). Debris objects in space refer to the collection of defunct objects orbiting the Earth. Examples of debris include non-operational satellites, rocket bodies, and fragments generated from explosions, collisions, or faulty payload assembly.

Loading next visibility...
Identifier
4614, 1970-025S
Orbit
SSO
Country
Flag of USUS
Related business
Manufacturer
Unknown
Mission
Spacecraft
Bus & Motor
Unknown
Mass
Unknown
Launch date (UTC)
1970-04-08 (56 years ago)
Launch vehicle
Unknown
Launch site
Air Force Western Test Range (AFWTR)
Object type
Payload
Rocket body
Debris
Shape & HBR
Unknown shape, 0.5 m
Radar Cross Section
Medium (>0.1 m² and <1 m²)

Expand to show TLE details & history
Last TLE update: 8 hours ago

TLE from 8 hours ago
0 THORAD AGENA D DEB
1 04614U 70025S   26264.30410521  .00000645  00000-0  52706-3 0  9993
2 04614 100.1020 296.6474 0078479 214.8064 144.7945 13.92605224839939
Epoch: 2026-09-21T07:17Z
TLE epoch observation values (Epoch: 2026-09-21T07:17:54.690Z)
Latitude
Longitude
-173.01633°
Altitude
969.297 km
Speed
7.343 km/s
True Right ascension
19h 46m 35s
True Declination
0° 00' 00"
Sunlit
Object was in daylight at epoch
Visualization orbit readout
Latitude
Unknown
Longitude
Unknown
Altitude
Unknown
Speed
Unknown
Apparent Right ascension
Unknown
Apparent Declination
Unknown
Sunlit
N/A
Visualization observer readout
Local Sidereal Time
08:06:38
Azimuth
Unknown
Elevation
Unknown
Doppler factor
Unknown
Orbital elements
Apogee altitude
974.031 km
Perigee altitude
859.531 km
Semi-major axis
7,294.918 km
Eccentricity
0.00785
Inclination
100.102°
RAAN
296.6474°
Arg. of periapsis
214.8064°
True anomaly
145.30883°
Mean anomaly
144.7945°
Eccentric anomaly
145.05207°
Mean motion
3.48347 °/min
Orbital period
103.35 mins
BSTAR
0.00052706

Documentation

Showing up to 5 results
|